When you browse on this site, cookies collect data to enhance your experience and personalize the content and advertising you see.
Visit our Privacy Policy to learn more. By continuing to use the site, you agree to this use of cookies and data.
  • In Sweden
  • List of Countries
  • For 7 days
  • Water Temperature
  • Satellite Maps
  • Weather Map
  • Weather Widgets
  • user-avatar
    Login

    Hourly Weather Tepenevo

    Today, 23 March, Saturday

    Time Temperature Precipitation Wind Pressure Humidity
    00:00 -2°C° 0 mm 5 mps 753 mmHg 79%
    01:00 -2°C° 0 mm 4 mps 753 mmHg 81%
    02:00 -3°C° 0 mm 4 mps 753 mmHg 83%
    03:00 -3°C° 0 mm 4 mps 753 mmHg 84%
    04:00 -3°C° 0 mm 4 mps 754 mmHg 84%
    05:00 -2°C° 0 mm 4 mps 754 mmHg 84%
    06:00 -1°C° 0 mm 3 mps 754 mmHg 83%
    07:00 -1°C° 0 mm 3 mps 754 mmHg 83%
    08:00 -1°C° 0 mm 3 mps 755 mmHg 82%
    09:00 +1°C° 0 mm 2 mps 755 mmHg 77%
    10:00 +2°C° 0 mm 2 mps 755 mmHg 72%
    11:00 +5°C° 0 mm 1 mps 755 mmHg 67%
    12:00 +6°C° 0 mm 1 mps 754 mmHg 63%
    13:00 +6°C° 0 mm 1 mps 754 mmHg 59%
    14:00 +7°C° 0 mm 1 mps 753 mmHg 56%
    15:00 +7°C° 0 mm 1 mps 753 mmHg 57%
    16:00 +7°C° 0 mm 1 mps 752 mmHg 59%
    17:00 +6°C° 0 mm 2 mps 752 mmHg 61%
    18:00 +5°C° 0 mm 2 mps 751 mmHg 64%
    19:00 +4°C° 0 mm 2 mps 751 mmHg 67%
    20:00 +2°C° 0 mm 3 mps 751 mmHg 70%
    21:00 +2°C° 0.2 mm 3 mps 750 mmHg 67%
    22:00 +2°C° 0.2 mm 3 mps 749 mmHg 64%
    23:00 +3°C° 0.2 mm 4 mps 748 mmHg 62%

    Tomorrow, 24 March, Sunday

    Time Temperature Precipitation Wind Pressure Humidity
    00:00 +1°C° 0.4 mm 4 mps 748 mmHg 67%
    01:00 +2°C° 0.4 mm 3 mps 747 mmHg 72%
    02:00 +2°C° 0.4 mm 3 mps 747 mmHg 77%
    03:00 +2°C° 0 mm 3 mps 746 mmHg 83%
    04:00 +1°C° 0 mm 3 mps 746 mmHg 88%
    05:00 +2°C° 0 mm 2 mps 746 mmHg 93%
    06:00 +1°C° 0 mm 3 mps 746 mmHg 88%
    07:00 +1°C° 0 mm 4 mps 746 mmHg 84%
    08:00 +1°C° 0 mm 4 mps 746 mmHg 79%
    09:00 +2°C° 0 mm 5 mps 746 mmHg 70%
    10:00 +3°C° 0 mm 5 mps 746 mmHg 61%
    11:00 +5°C° 0 mm 5 mps 746 mmHg 52%
    12:00 +5°C° 0 mm 5 mps 746 mmHg 49%
    13:00 +5°C° 0 mm 5 mps 746 mmHg 47%
    14:00 +6°C° 0 mm 5 mps 746 mmHg 44%
    15:00 +5°C° 0 mm 4 mps 746 mmHg 46%
    16:00 +5°C° 0 mm 4 mps 746 mmHg 48%
    17:00 +4°C° 0 mm 3 mps 745 mmHg 50%
    18:00 +3°C° 0 mm 3 mps 745 mmHg 54%
    19:00 +2°C° 0 mm 3 mps 746 mmHg 58%
    20:00 +1°C° 0 mm 3 mps 746 mmHg 62%
    21:00 +1°C° 0 mm 2 mps 745 mmHg 64%
    22:00 +1°C° 0 mm 2 mps 745 mmHg 66%
    23:00 -1°C° 0 mm 2 mps 745 mmHg 68%

    Day after tomorrow, 25 March, Monday

    Time Temperature Precipitation Wind Pressure Humidity
    00:00 -1°C° 0 mm 2 mps 745 mmHg 69%
    01:00 -1°C° 0 mm 2 mps 745 mmHg 69%
    02:00 -2°C° 0 mm 2 mps 744 mmHg 69%
    03:00 -2°C° 0 mm 2 mps 744 mmHg 71%
    04:00 -2°C° 0 mm 2 mps 744 mmHg 72%
    05:00 -2°C° 0 mm 2 mps 744 mmHg 73%
    06:00 -1°C° 0 mm 3 mps 744 mmHg 70%
    07:00 0°C° 0 mm 3 mps 743 mmHg 66%
    08:00 0°C° 0 mm 3 mps 743 mmHg 63%
    09:00 +2°C° 0 mm 3 mps 743 mmHg 56%
    10:00 +3°C° 0 mm 3 mps 743 mmHg 49%
    11:00 +5°C° 0 mm 3 mps 742 mmHg 41%
    12:00 +5°C° 0 mm 3 mps 742 mmHg 42%
    13:00 +5°C° 0 mm 3 mps 742 mmHg 42%
    14:00 +7°C° 0 mm 3 mps 742 mmHg 43%
    15:00 +6°C° 0 mm 2 mps 742 mmHg 47%
    16:00 +6°C° 0 mm 2 mps 741 mmHg 51%
    17:00 +6°C° 0 mm 1 mps 741 mmHg 55%
    18:00 +5°C° 0 mm 1 mps 741 mmHg 60%
    19:00 +3°C° 0 mm 1 mps 742 mmHg 64%
    20:00 +2°C° 0 mm 1 mps 742 mmHg 69%
    21:00 +2°C° 0 mm 1 mps 742 mmHg 73%
    22:00 +1°C° 0 mm 1 mps 742 mmHg 76%
    23:00 +1°C° 0 mm 1 mps 742 mmHg 79%

    26 March, Tuesday

    Time Temperature Precipitation Wind Pressure Humidity
    00:00 +1°C° 0 mm 1 mps 742 mmHg 83%
    01:00 +1°C° 0 mm 1 mps 742 mmHg 86%
    02:00 +1°C° 0 mm 1 mps 742 mmHg 90%
    03:00 -1°C° 0 mm 2 mps 741 mmHg 90%
    04:00 -1°C° 0 mm 2 mps 741 mmHg 91%
    05:00 -1°C° 0 mm 2 mps 741 mmHg 91%
    06:00 -1°C° 0.1 mm 2 mps 741 mmHg 89%
    07:00 0°C° 0.1 mm 3 mps 741 mmHg 87%
    08:00 0°C° 0.1 mm 3 mps 741 mmHg 86%
    09:00 -1°C° 0.4 mm 4 mps 742 mmHg 82%
    10:00 -1°C° 0.4 mm 4 mps 742 mmHg 79%
    11:00 -1°C° 0.4 mm 4 mps 742 mmHg 76%
    12:00 0°C° 0.1 mm 4 mps 742 mmHg 69%
    13:00 0°C° 0.1 mm 4 mps 742 mmHg 62%
    14:00 +1°C° 0.1 mm 4 mps 742 mmHg 55%
    15:00 +1°C° 0 mm 3 mps 742 mmHg 56%
    16:00 +2°C° 0 mm 2 mps 742 mmHg 57%
    17:00 +3°C° 0 mm 1 mps 742 mmHg 58%
    18:00 +2°C° 0 mm 1 mps 743 mmHg 64%
    19:00 +1°C° 0 mm 1 mps 743 mmHg 69%
    20:00 0°C° 0 mm 1 mps 743 mmHg 74%
    21:00 0°C° 0 mm 1 mps 743 mmHg 76%
    22:00 -1°C° 0 mm 1 mps 743 mmHg 78%
    23:00 -1°C° 0 mm 1 mps 744 mmHg 80%

    27 March, Wednesday

    Time Temperature Precipitation Wind Pressure Humidity
    00:00 -1°C° 0 mm 1 mps 744 mmHg 81%
    01:00 -1°C° 0 mm 1 mps 744 mmHg 83%
    02:00 -4°C° 0 mm 2 mps 745 mmHg 84%
    03:00 -4°C° 0 mm 2 mps 745 mmHg 85%
    04:00 -4°C° 0 mm 2 mps 745 mmHg 86%
    05:00 -5°C° 0 mm 2 mps 746 mmHg 87%
    06:00 -5°C° 0 mm 3 mps 746 mmHg 82%
    07:00 -4°C° 0 mm 3 mps 747 mmHg 78%
    08:00 -4°C° 0 mm 3 mps 747 mmHg 73%
    09:00 -3°C° 0.2 mm 4 mps 748 mmHg 68%
    10:00 -2°C° 0.2 mm 4 mps 748 mmHg 62%
    11:00 -2°C° 0.2 mm 5 mps 748 mmHg 57%
    12:00 -1°C° 0 mm 5 mps 749 mmHg 51%
    13:00 -1°C° 0 mm 5 mps 749 mmHg 45%
    14:00 0°C° 0 mm 5 mps 749 mmHg 39%
    15:00 -1°C° 0 mm 5 mps 750 mmHg 41%
    16:00 -1°C° 0 mm 4 mps 750 mmHg 43%
    17:00 -1°C° 0 mm 4 mps 751 mmHg 46%
    18:00 -1°C° 0 mm 3 mps 751 mmHg 53%
    19:00 -4°C° 0 mm 3 mps 752 mmHg 60%
    20:00 -4°C° 0 mm 2 mps 752 mmHg 67%
    21:00 -4°C° 0 mm 2 mps 753 mmHg 69%
    22:00 -4°C° 0 mm 2 mps 753 mmHg 71%
    23:00 -5°C° 0 mm 2 mps 753 mmHg 74%

    28 March, Thursday

    Time Temperature Precipitation Wind Pressure Humidity
    00:00 -5°C° 0 mm 2 mps 754 mmHg 74%
    01:00 -5°C° 0 mm 2 mps 754 mmHg 75%
    02:00 -5°C° 0 mm 2 mps 754 mmHg 76%
    03:00 -5°C° 0 mm 2 mps 755 mmHg 75%
    04:00 -5°C° 0 mm 2 mps 755 mmHg 75%
    05:00 -3°C° 0 mm 1 mps 755 mmHg 75%
    06:00 -4°C° 0 mm 2 mps 755 mmHg 68%
    07:00 -3°C° 0 mm 2 mps 755 mmHg 60%
    08:00 -3°C° 0 mm 2 mps 755 mmHg 53%
    09:00 -1°C° 0 mm 3 mps 755 mmHg 54%
    10:00 0°C° 0 mm 3 mps 755 mmHg 55%
    11:00 +1°C° 0 mm 3 mps 755 mmHg 56%
    12:00 +2°C° 0 mm 3 mps 755 mmHg 58%
    13:00 +1°C° 0 mm 4 mps 755 mmHg 60%
    14:00 +3°C° 0 mm 4 mps 754 mmHg 62%
    15:00 +3°C° 0 mm 3 mps 754 mmHg 65%
    16:00 +3°C° 0 mm 3 mps 754 mmHg 67%
    17:00 +3°C° 0 mm 3 mps 754 mmHg 70%
    18:00 +2°C° 0 mm 2 mps 754 mmHg 76%
    19:00 +1°C° 0 mm 2 mps 754 mmHg 83%
    20:00 -1°C° 0 mm 2 mps 754 mmHg 89%
    21:00 -1°C° 0 mm 2 mps 754 mmHg 90%
    22:00 -1°C° 0 mm 2 mps 754 mmHg 91%
    23:00 -2°C° 0 mm 2 mps 754 mmHg 91%
    Show more